sat.trackr.live / text

‹ back to catalog

HJS-7D

NORAD 65620 · 2025-209D

PAYLOAD ACTIVE UNKNOWN

§ Identity

Operator
Country
PRC
Launch date
2025-09-16
Launch site
JSC
Launch vehicle
Mass (kg)
RCS (m²)

External: N2YO · Heavens-Above · Gunter

§ Orbital elements

Epoch: 2026-05-25T04:43:12.648288Z

Period
107.35 min
Inclination
50.0001°
Eccentricity
0.0005411
Mean motion
13.41468686 rev/d
Perigee alt
1,099.8 km
Apogee alt
1,107.9 km
Semi-major
7,482.0 km
B*
1.5622e-4
RAAN
82.7804°
Arg perigee
325.2612°
Mean anomaly
34.7912°
Rev number
3,455

§ Raw data

HJS-7D1 65620U 25209D   26145.19667417 -.00000041  00000+0  15622-3 0  99902 65620  50.0001  82.7804 0005411 325.2612  34.7912 13.41468686 34558

JSON: /api/v1/satellites/65620 · /tle

For live sub-satellite position, see the globe view (requires WebGL).

§ Visibility from observer

Set your observer location to see the next 7 days of passes ≥ 10°. The values pass through the URL so the page stays shareable.

No JS? Fill the form by hand. The geolocation button needs JavaScript.